Time,TemperatureF,DewpointF,PressureIn,WindDirection,WindDirectionDegrees,WindSpeedMPH,WindSpeedGustMPH,Humidity,HourlyPrecipIn,Conditions,Clouds,dailyrainin,SolarRadiationWatts/m^2,SoftwareType,DateUTC
2013-03-22 00:12:00,19.0,17.0,-100.00,NNW,344,2.0,5.0,91,0.00,,,0.51,0.000000,,2013-03-22 06:12:00,
2013-03-22 00:22:00,19.0,17.0,-100.00,NNW,344,2.0,5.0,91,0.00,,,0.51,0.000000,,2013-03-22 06:22:00,
2013-03-22 00:32:00,19.0,17.0,-100.00,NNW,344,2.0,5.0,91,0.00,,,0.51,0.000000,,2013-03-22 06:32:00,
2013-03-22 00:42:00,19.0,17.0,-100.00,NNW,344,2.0,5.0,91,0.00,,,0.51,0.000000,,2013-03-22 06:42:00,
2013-03-22 01:12:00,18.0,16.0,-100.00,SSE,160,0.0,5.0,91,0.00,,,-99.99,0.000000,,2013-03-22 07:12:00,
2013-03-22 01:22:00,18.0,16.0,-100.00,SSE,160,0.0,5.0,91,0.00,,,-99.99,0.000000,,2013-03-22 07:22:00,
2013-03-22 01:32:00,18.0,16.0,-100.00,SSE,160,0.0,5.0,91,0.00,,,-99.99,0.000000,,2013-03-22 07:32:00,
2013-03-22 01:42:00,18.0,16.0,-100.00,SSE,160,0.0,5.0,91,0.00,,,-99.99,0.000000,,2013-03-22 07:42:00,
2013-03-22 02:12:00,17.0,15.0,-100.00,WSW,239,0.0,2.0,91,0.00,,,0.51,0.000000,,2013-03-22 08:12:00,
2013-03-22 02:22:00,17.0,15.0,-100.00,WSW,239,0.0,2.0,91,0.00,,,0.51,0.000000,,2013-03-22 08:22:00,
2013-03-22 02:32:00,17.0,15.0,-100.00,WSW,239,0.0,2.0,91,0.00,,,0.51,0.000000,,2013-03-22 08:32:00,
2013-03-22 02:42:00,17.0,15.0,-100.00,WSW,239,0.0,2.0,91,0.00,,,0.51,0.000000,,2013-03-22 08:42:00,
2013-03-22 03:12:00,17.0,15.0,-100.00,South,175,1.0,3.0,90,0.00,,,0.50,0.000000,,2013-03-22 09:12:00,
2013-03-22 03:22:00,17.0,15.0,-100.00,South,175,1.0,3.0,90,0.00,,,0.50,0.000000,,2013-03-22 09:22:00,
2013-03-22 03:32:00,17.0,15.0,-100.00,South,175,1.0,3.0,90,0.00,,,0.50,0.000000,,2013-03-22 09:32:00,
2013-03-22 03:42:00,17.0,15.0,-100.00,South,175,1.0,3.0,90,0.00,,,0.50,0.000000,,2013-03-22 09:42:00,
2013-03-22 04:12:00,15.0,13.0,-100.00,North,2,0.0,2.0,90,0.00,,,0.50,0.000000,,2013-03-22 10:12:00,
2013-03-22 04:22:00,15.0,13.0,-100.00,North,2,0.0,2.0,90,0.00,,,0.50,0.000000,,2013-03-22 10:22:00,
2013-03-22 04:32:00,15.0,13.0,-100.00,North,2,0.0,2.0,90,0.00,,,0.50,0.000000,,2013-03-22 10:32:00,
2013-03-22 04:42:00,15.0,13.0,-100.00,North,2,0.0,2.0,90,0.00,,,0.50,0.000000,,2013-03-22 10:42:00,
2013-03-22 05:12:00,12.0,9.0,-100.00,NNW,330,1.0,2.0,87,0.00,,,0.50,0.000000,,2013-03-22 11:12:00,
2013-03-22 05:22:00,12.0,9.0,-100.00,NNW,330,1.0,2.0,87,0.00,,,0.50,0.000000,,2013-03-22 11:22:00,
2013-03-22 05:32:00,12.0,9.0,-100.00,NNW,330,1.0,2.0,87,0.00,,,0.50,0.000000,,2013-03-22 11:32:00,
2013-03-22 05:42:00,12.0,9.0,-100.00,NNW,330,1.0,2.0,87,0.00,,,0.50,0.000000,,2013-03-22 11:42:00,
2013-03-22 06:12:00,12.0,9.0,-100.00,NNW,329,0.0,0.0,89,0.00,,,-99.99,0.000000,,2013-03-22 12:12:00,
2013-03-22 06:22:00,12.0,9.0,-100.00,NNW,329,0.0,0.0,89,0.00,,,-99.99,0.000000,,2013-03-22 12:22:00,
2013-03-22 06:32:00,12.0,9.0,-100.00,NNW,329,0.0,0.0,89,0.00,,,-99.99,0.000000,,2013-03-22 12:32:00,
2013-03-22 06:42:00,12.0,9.0,-100.00,NNW,329,0.0,0.0,89,0.00,,,-99.99,0.000000,,2013-03-22 12:42:00,
2013-03-22 07:12:00,12.0,9.0,-100.00,NNW,344,0.0,2.0,88,0.00,,,0.50,0.000000,,2013-03-22 13:12:00,
2013-03-22 07:22:00,12.0,9.0,-100.00,NNW,344,0.0,2.0,88,0.00,,,0.50,0.000000,,2013-03-22 13:22:00,
2013-03-22 07:32:00,12.0,9.0,-100.00,NNW,344,0.0,2.0,88,0.00,,,0.50,0.000000,,2013-03-22 13:32:00,
2013-03-22 07:42:00,12.0,9.0,-100.00,NNW,344,0.0,2.0,88,0.00,,,0.50,0.000000,,2013-03-22 13:42:00,
2013-03-22 08:12:00,13.0,10.0,-100.00,NNE,17,1.0,3.0,88,0.00,,,0.50,1.000000,,2013-03-22 14:12:00,
2013-03-22 08:22:00,13.0,10.0,-100.00,NNE,17,1.0,3.0,88,0.00,,,0.50,1.000000,,2013-03-22 14:22:00,
2013-03-22 08:32:00,13.0,10.0,-100.00,NNE,17,1.0,3.0,88,0.00,,,0.50,1.000000,,2013-03-22 14:32:00,
2013-03-22 08:42:00,13.0,10.0,-100.00,NNE,17,1.0,3.0,88,0.00,,,0.50,1.000000,,2013-03-22 14:42:00,
2013-03-22 09:12:00,15.0,11.0,-100.00,North,2,0.0,3.0,85,0.00,,,0.50,11.000000,,2013-03-22 15:12:00,
2013-03-22 09:22:00,15.0,11.0,-100.00,North,2,0.0,3.0,85,0.00,,,0.50,11.000000,,2013-03-22 15:22:00,
2013-03-22 09:32:00,15.0,11.0,-100.00,North,2,0.0,3.0,85,0.00,,,0.50,11.000000,,2013-03-22 15:32:00,
2013-03-22 09:42:00,15.0,11.0,-100.00,North,2,0.0,3.0,85,0.00,,,0.50,11.000000,,2013-03-22 15:42:00,
2013-03-22 10:13:00,21.0,15.0,-100.00,NNE,33,2.0,3.0,77,0.00,,,0.50,28.000000,,2013-03-22 16:13:00,
2013-03-22 10:22:00,21.0,15.0,-100.00,NNE,33,2.0,3.0,77,0.00,,,0.50,28.000000,,2013-03-22 16:22:00,
2013-03-22 10:32:00,21.0,15.0,-100.00,NNE,33,2.0,3.0,77,0.00,,,0.50,28.000000,,2013-03-22 16:32:00,
2013-03-22 10:42:00,21.0,15.0,-100.00,NNE,33,2.0,3.0,77,0.00,,,0.50,28.000000,,2013-03-22 16:42:00,
2013-03-22 11:12:00,22.0,16.0,-100.00,East,101,1.0,3.0,77,0.00,,,0.50,29.000000,,2013-03-22 17:12:00,
2013-03-22 11:23:00,22.0,16.0,-100.00,East,101,1.0,3.0,77,0.00,,,0.50,29.000000,,2013-03-22 17:23:00,
2013-03-22 11:32:00,22.0,16.0,-100.00,East,101,1.0,3.0,77,0.00,,,0.50,29.000000,,2013-03-22 17:32:00,
2013-03-22 11:42:00,22.0,16.0,-100.00,East,101,1.0,3.0,77,0.00,,,0.50,29.000000,,2013-03-22 17:42:00,
2013-03-22 12:12:00,30.0,16.0,-100.00,West,260,2.0,4.0,55,0.06,,,0.53,117.000000,,2013-03-22 18:12:00,
2013-03-22 12:22:00,30.0,16.0,-100.00,West,260,2.0,4.0,55,0.06,,,0.53,117.000000,,2013-03-22 18:22:00,
2013-03-22 12:32:00,30.0,16.0,-100.00,West,260,2.0,4.0,55,0.06,,,0.53,117.000000,,2013-03-22 18:32:00,
2013-03-22 12:42:00,30.0,16.0,-100.00,West,260,2.0,4.0,55,0.06,,,0.53,117.000000,,2013-03-22 18:42:00,
2013-03-22 13:12:00,32.0,15.0,-100.00,NNW,334,4.0,8.0,48,0.16,,,0.53,583.000000,,2013-03-22 19:12:00,
2013-03-22 13:22:00,32.0,15.0,-100.00,NNW,334,4.0,8.0,48,0.16,,,0.53,583.000000,,2013-03-22 19:22:00,
2013-03-22 13:32:00,32.0,15.0,-100.00,NNW,334,4.0,8.0,48,0.16,,,0.53,583.000000,,2013-03-22 19:32:00,
2013-03-22 13:42:00,32.0,15.0,-100.00,NNW,334,4.0,8.0,48,0.16,,,0.53,583.000000,,2013-03-22 19:42:00,
2013-03-22 14:12:00,26.0,13.0,-100.00,West,268,2.0,7.0,57,0.04,,,0.39,299.000000,,2013-03-22 20:12:00,
2013-03-22 14:22:00,26.0,13.0,-100.00,West,268,2.0,7.0,57,0.04,,,0.39,299.000000,,2013-03-22 20:22:00,
2013-03-22 14:32:00,26.0,13.0,-100.00,West,268,2.0,7.0,57,0.04,,,0.39,299.000000,,2013-03-22 20:32:00,
2013-03-22 14:42:00,26.0,13.0,-100.00,West,268,2.0,7.0,57,0.04,,,0.39,299.000000,,2013-03-22 20:42:00,
2013-03-22 15:12:00,29.0,9.0,-100.00,NNW,346,2.0,6.0,43,0.12,,,0.38,494.000000,,2013-03-22 21:12:00,
2013-03-22 15:22:00,29.0,9.0,-100.00,NNW,346,2.0,6.0,43,0.12,,,0.38,494.000000,,2013-03-22 21:22:00,
2013-03-22 15:32:00,29.0,9.0,-100.00,NNW,346,2.0,6.0,43,0.12,,,0.38,494.000000,,2013-03-22 21:32:00,
2013-03-22 15:42:00,29.0,9.0,-100.00,NNW,346,2.0,6.0,43,0.12,,,0.38,494.000000,,2013-03-22 21:42:00,
2013-03-22 16:12:00,26.0,7.0,-100.00,WNW,299,2.0,5.0,43,0.00,,,0.38,257.000000,,2013-03-22 22:12:00,
2013-03-22 16:22:00,26.0,7.0,-100.00,WNW,299,2.0,5.0,43,0.00,,,0.38,257.000000,,2013-03-22 22:22:00,
2013-03-22 16:32:00,26.0,7.0,-100.00,WNW,299,2.0,5.0,43,0.00,,,0.38,257.000000,,2013-03-22 22:32:00,
2013-03-22 16:42:00,26.0,7.0,-100.00,WNW,299,2.0,5.0,43,0.00,,,0.38,257.000000,,2013-03-22 22:42:00,
2013-03-22 17:12:00,27.0,14.0,-100.00,North,2,5.0,10.0,57,0.00,,,0.38,418.000000,,2013-03-22 23:12:00,
2013-03-22 17:22:00,27.0,14.0,-100.00,North,2,5.0,10.0,57,0.00,,,0.38,418.000000,,2013-03-22 23:22:00,
2013-03-22 17:32:00,27.0,14.0,-100.00,North,2,5.0,10.0,57,0.00,,,0.38,418.000000,,2013-03-22 23:32:00,
2013-03-22 17:42:00,27.0,14.0,-100.00,North,2,5.0,10.0,57,0.00,,,0.38,418.000000,,2013-03-22 23:42:00,
2013-03-22 18:12:00,24.0,11.0,-100.00,NE,47,1.0,8.0,57,0.00,,,0.38,165.000000,,2013-03-23 00:12:00,
2013-03-22 18:23:00,24.0,11.0,-100.00,NE,47,1.0,8.0,57,0.00,,,0.38,165.000000,,2013-03-23 00:23:00,
2013-03-22 18:32:00,24.0,11.0,-100.00,NE,47,1.0,8.0,57,0.00,,,0.38,165.000000,,2013-03-23 00:32:00,
2013-03-22 18:42:00,24.0,11.0,-100.00,NE,47,1.0,8.0,57,0.00,,,0.38,165.000000,,2013-03-23 00:42:00,
2013-03-22 19:12:00,23.0,12.0,-100.00,NNW,335,0.0,2.0,63,0.00,,,0.38,99.000000,,2013-03-23 01:12:00,
2013-03-22 19:22:00,23.0,12.0,-100.00,NNW,335,0.0,2.0,63,0.00,,,0.38,99.000000,,2013-03-23 01:22:00,
2013-03-22 19:32:00,23.0,12.0,-100.00,NNW,335,0.0,2.0,63,0.00,,,0.38,99.000000,,2013-03-23 01:32:00,
2013-03-22 19:42:00,23.0,12.0,-100.00,NNW,335,0.0,2.0,63,0.00,,,0.38,99.000000,,2013-03-23 01:42:00,
2013-03-22 20:12:00,17.0,13.0,-100.00,NNE,13,0.0,2.0,83,0.00,,,0.38,21.000000,,2013-03-23 02:12:00,
2013-03-22 20:22:00,17.0,13.0,-100.00,NNE,13,0.0,2.0,83,0.00,,,0.38,21.000000,,2013-03-23 02:22:00,
2013-03-22 20:31:00,17.0,13.0,-100.00,NNE,13,0.0,2.0,83,0.00,,,0.38,21.000000,,2013-03-23 02:31:00,
2013-03-22 20:42:00,17.0,13.0,-100.00,NNE,13,0.0,2.0,83,0.00,,,0.38,21.000000,,2013-03-23 02:42:00,
2013-03-22 21:12:00,12.0,9.0,-100.00,North,352,0.0,2.0,87,0.00,,,0.38,0.000000,,2013-03-23 03:12:00,
2013-03-22 21:22:00,12.0,9.0,-100.00,North,352,0.0,2.0,87,0.00,,,0.38,0.000000,,2013-03-23 03:22:00,
2013-03-22 21:33:00,12.0,9.0,-100.00,North,352,0.0,2.0,87,0.00,,,0.38,0.000000,,2013-03-23 03:33:00,
2013-03-22 21:42:00,12.0,9.0,-100.00,North,352,0.0,2.0,87,0.00,,,0.38,0.000000,,2013-03-23 03:42:00,
2013-03-22 22:12:00,9.0,6.0,-100.00,NNE,22,1.0,2.0,86,0.00,,,0.38,0.000000,,2013-03-23 04:12:00,
2013-03-22 22:23:00,9.0,6.0,-100.00,NNE,22,1.0,2.0,86,0.00,,,0.38,0.000000,,2013-03-23 04:23:00,
2013-03-22 22:32:00,9.0,6.0,-100.00,NNE,22,1.0,2.0,86,0.00,,,0.38,0.000000,,2013-03-23 04:32:00,
2013-03-22 22:42:00,9.0,6.0,-100.00,NNE,22,1.0,2.0,86,0.00,,,0.38,0.000000,,2013-03-23 04:42:00,
2013-03-22 23:12:00,10.0,5.0,-100.00,NNE,24,1.0,7.0,78,0.00,,,0.38,0.000000,,2013-03-23 05:12:00,
2013-03-22 23:22:00,10.0,5.0,-100.00,NNE,24,1.0,7.0,78,0.00,,,0.38,0.000000,,2013-03-23 05:22:00,
2013-03-22 23:32:00,10.0,5.0,-100.00,NNE,24,1.0,7.0,78,0.00,,,0.38,0.000000,,2013-03-23 05:32:00,
2013-03-22 23:42:00,10.0,5.0,-100.00,NNE,24,1.0,7.0,78,0.00,,,0.38,0.000000,,2013-03-23 05:42:00,